Hourly Data Report for July 07, 2012

HALIFAX STANFIELD INT'L A
NOVA SCOTIA

44°52'48.060" N
63°30'00.050" W
145.40 m
8202250
71395
YHZ

Download Data

Hourly Data (July 2012)
Hourly Data Report for July 7, 2012
TIME
LST
Temp Definition
°C
Dew Point Definition
°C
Rel Hum Definition
%
Precip. Amount Definition
mm

Wind Dir Definition
10's deg

Wind Spd Definition
km/h
Visibility Definition
km
Stn Press Definition
kPa
Hmdx Definition


Wind Chill Definition


Weather Definition


00:00 17.9 16.6 92   29 13 24.1 99.10     Mainly Clear
01:00 17.6 16.6 94   29 11 24.1 99.03     Mainly Clear
02:00 17.3 16.9 97   29 15 24.1 99.00     Mainly Clear
03:00 17.6 17.0 96   28 11 24.1 99.02     Cloudy
04:00 18.0 17.3 96   29 11 24.1 98.98     Mostly Cloudy
05:00 18.1 17.1 94   29 11 24.1 98.98     Mostly Cloudy
06:00 19.1 17.3 89   27 9 24.1 98.95     Mostly Cloudy
07:00 19.7 17.1 85   25 13 24.1 98.92     Mostly Cloudy
08:00 19.6 17.0 85   27 11 24.1 98.94     Mostly Cloudy
09:00 18.7 17.3 92   20 11 24.1 98.88     Rain Showers
10:00 19.8 17.9 89   21 22 24.1 98.82     Rain Showers
11:00 19.9 18.1 89   22 22 24.1 98.81     Rain Showers
12:00 19.7 18.0 90   20 24 24.1 98.76     Cloudy
13:00 20.4 18.3 88   21 19 24.1 98.74 27   Mostly Cloudy
14:00 22.0 19.0 83   23 20 24.1 98.68 29   Mostly Cloudy
15:00 22.3 18.9 81   22 9 24.1 98.67 29   Mostly Cloudy
16:00 23.5 19.2 77   19 15 24.1 98.63 30   Mostly Cloudy
17:00 22.2 19.1 83   17 13 24.1 98.60 29   Mostly Cloudy
18:00 20.6 18.6 88   17 9 24.1 98.63 27   Thunderstorms
19:00 20.2 18.7 91   21 9 24.1 98.60 27   Rain Showers
20:00 19.3 18.5 95     0 24.1 98.69     Mostly Cloudy
21:00 19.2 18.5 96   15 11 16.1 98.67     Cloudy
22:00 18.5 18.0 97   19 9 6.4 98.69     Fog
23:00 18.2 18.2 100   21 9 24.1 98.68     Mostly Cloudy

Notes on Data Quality.

Legend

  • E = Estimated
  • M = Missing
  • NA = Not Available*
  • [empty] = Indicates an unobserved value
Date modified: